• In Belarus
  • List of Countries
  • For 7 days
  • Water Temperature
  • Weather Map
  • Weather Widgets
  • user-avatar
    Login

    Hourly Weather Montana

    Today, 19 October, Saturday

    Time Temperature Precipitation Wind Pressure Humidity
    00:00 +18°C° 0 mm 1 mps 735 mmHg 52%
    01:00 +18°C° 0 mm 1 mps 735 mmHg 54%
    02:00 +16°C° 0 mm 1 mps 735 mmHg 55%
    03:00 +16°C° 0 mm 1 mps 735 mmHg 57%
    04:00 +15°C° 0 mm 1 mps 735 mmHg 60%
    05:00 +14°C° 0 mm 0 mps 735 mmHg 62%
    06:00 +15°C° 0 mm 0 mps 736 mmHg 61%
    07:00 +15°C° 0 mm 0 mps 736 mmHg 60%
    08:00 +16°C° 0 mm 0 mps 736 mmHg 59%
    09:00 +20°C° 0 mm 1 mps 736 mmHg 53%
    10:00 +22°C° 0 mm 1 mps 736 mmHg 47%
    11:00 +24°C° 0 mm 1 mps 736 mmHg 42%
    12:00 +25°C° 0 mm 1 mps 736 mmHg 39%
    13:00 +25°C° 0 mm 1 mps 736 mmHg 37%
    14:00 +26°C° 0 mm 2 mps 735 mmHg 35%
    15:00 +26°C° 0 mm 1 mps 735 mmHg 38%
    16:00 +25°C° 0 mm 1 mps 735 mmHg 40%
    17:00 +24°C° 0 mm 1 mps 735 mmHg 43%
    18:00 +23°C° 0 mm 1 mps 735 mmHg 46%
    19:00 +21°C° 0 mm 1 mps 735 mmHg 50%
    20:00 +20°C° 0 mm 1 mps 736 mmHg 53%
    21:00 +19°C° 0 mm 1 mps 736 mmHg 54%
    22:00 +19°C° 0 mm 1 mps 736 mmHg 55%
    23:00 +19°C° 0 mm 1 mps 736 mmHg 56%

    Tomorrow, 20 October, Sunday

    Time Temperature Precipitation Wind Pressure Humidity
    00:00 +19°C° 0 mm 1 mps 736 mmHg 57%
    01:00 +18°C° 0 mm 1 mps 736 mmHg 59%
    02:00 +18°C° 0 mm 1 mps 737 mmHg 60%
    03:00 +18°C° 0 mm 1 mps 737 mmHg 62%
    04:00 +16°C° 0 mm 1 mps 737 mmHg 64%
    05:00 +16°C° 0 mm 1 mps 737 mmHg 65%
    06:00 +16°C° 0 mm 1 mps 737 mmHg 64%
    07:00 +18°C° 0 mm 1 mps 737 mmHg 63%
    08:00 +16°C° 0 mm 0 mps 737 mmHg 61%
    09:00 +20°C° 0 mm 1 mps 737 mmHg 55%
    10:00 +22°C° 0 mm 1 mps 738 mmHg 49%
    11:00 +24°C° 0 mm 1 mps 738 mmHg 42%
    12:00 +25°C° 0 mm 1 mps 737 mmHg 40%
    13:00 +26°C° 0 mm 1 mps 737 mmHg 38%
    14:00 +27°C° 0 mm 1 mps 737 mmHg 36%
    15:00 +26°C° 0 mm 1 mps 737 mmHg 39%
    16:00 +25°C° 0 mm 1 mps 737 mmHg 42%
    17:00 +24°C° 0 mm 1 mps 736 mmHg 44%
    18:00 +23°C° 0 mm 1 mps 737 mmHg 48%
    19:00 +22°C° 0 mm 1 mps 737 mmHg 51%
    20:00 +20°C° 0 mm 1 mps 737 mmHg 55%
    21:00 +20°C° 0 mm 1 mps 738 mmHg 56%
    22:00 +20°C° 0 mm 1 mps 738 mmHg 57%
    23:00 +19°C° 0 mm 1 mps 738 mmHg 58%

    Day after tomorrow, 21 October, Monday

    Time Temperature Precipitation Wind Pressure Humidity
    00:00 +19°C° 0 mm 1 mps 738 mmHg 59%
    01:00 +19°C° 0 mm 1 mps 738 mmHg 60%
    02:00 +18°C° 0 mm 1 mps 738 mmHg 61%
    03:00 +18°C° 0 mm 1 mps 738 mmHg 62%
    04:00 +16°C° 0 mm 1 mps 738 mmHg 64%
    05:00 +15°C° 0 mm 0 mps 738 mmHg 65%
    06:00 +15°C° 0 mm 0 mps 738 mmHg 64%
    07:00 +16°C° 0 mm 0 mps 738 mmHg 63%
    08:00 +16°C° 0 mm 0 mps 738 mmHg 61%
    09:00 +21°C° 0 mm 1 mps 738 mmHg 55%
    10:00 +23°C° 0 mm 1 mps 738 mmHg 49%
    11:00 +25°C° 0 mm 1 mps 739 mmHg 42%
    12:00 +25°C° 0 mm 1 mps 738 mmHg 40%
    13:00 +26°C° 0 mm 1 mps 738 mmHg 38%
    14:00 +27°C° 0 mm 1 mps 738 mmHg 36%
    15:00 +26°C° 0 mm 1 mps 738 mmHg 39%
    16:00 +25°C° 0 mm 1 mps 737 mmHg 43%
    17:00 +24°C° 0 mm 1 mps 737 mmHg 46%
    18:00 +23°C° 0 mm 1 mps 737 mmHg 50%
    19:00 +21°C° 0 mm 1 mps 737 mmHg 53%
    20:00 +20°C° 0 mm 1 mps 738 mmHg 57%
    21:00 +19°C° 0 mm 1 mps 738 mmHg 59%
    22:00 +19°C° 0 mm 1 mps 738 mmHg 60%
    23:00 +17°C° 0 mm 0 mps 738 mmHg 61%

    22 October, Tuesday

    Time Temperature Precipitation Wind Pressure Humidity
    00:00 +16°C° 0 mm 0 mps 738 mmHg 62%
    01:00 +16°C° 0 mm 0 mps 738 mmHg 63%
    02:00 +16°C° 0 mm 0 mps 738 mmHg 63%
    03:00 +15°C° 0 mm 0 mps 738 mmHg 65%
    04:00 +15°C° 0 mm 0 mps 738 mmHg 66%
    05:00 +15°C° 0 mm 0 mps 738 mmHg 68%
    06:00 +15°C° 0 mm 0 mps 738 mmHg 66%
    07:00 +16°C° 0 mm 0 mps 739 mmHg 65%
    08:00 +16°C° 0 mm 0 mps 739 mmHg 64%
    09:00 +20°C° 0 mm 1 mps 739 mmHg 57%
    10:00 +22°C° 0 mm 1 mps 739 mmHg 49%
    11:00 +24°C° 0 mm 1 mps 739 mmHg 42%
    12:00 +25°C° 0 mm 2 mps 739 mmHg 39%
    13:00 +26°C° 0 mm 2 mps 739 mmHg 37%
    14:00 +26°C° 0 mm 2 mps 738 mmHg 34%
    15:00 +25°C° 0 mm 2 mps 738 mmHg 37%
    16:00 +24°C° 0 mm 2 mps 738 mmHg 39%
    17:00 +23°C° 0 mm 1 mps 738 mmHg 42%
    18:00 +22°C° 0 mm 1 mps 738 mmHg 46%
    19:00 +20°C° 0 mm 1 mps 738 mmHg 49%
    20:00 +19°C° 0 mm 1 mps 738 mmHg 52%
    21:00 +18°C° 0 mm 1 mps 738 mmHg 53%
    22:00 +18°C° 0 mm 1 mps 739 mmHg 53%
    23:00 +18°C° 0 mm 1 mps 739 mmHg 54%

    23 October, Wednesday

    Time Temperature Precipitation Wind Pressure Humidity
    00:00 +16°C° 0 mm 1 mps 739 mmHg 54%
    01:00 +16°C° 0 mm 1 mps 739 mmHg 55%
    02:00 +14°C° 0 mm 0 mps 738 mmHg 55%
    03:00 +14°C° 0 mm 0 mps 738 mmHg 56%
    04:00 +14°C° 0 mm 0 mps 738 mmHg 57%
    05:00 +13°C° 0 mm 0 mps 738 mmHg 58%
    06:00 +14°C° 0 mm 0 mps 739 mmHg 57%
    07:00 +14°C° 0 mm 0 mps 739 mmHg 56%
    08:00 +15°C° 0 mm 0 mps 739 mmHg 55%
    09:00 +19°C° 0 mm 1 mps 739 mmHg 49%
    10:00 +21°C° 0 mm 1 mps 739 mmHg 44%
    11:00 +23°C° 0 mm 2 mps 739 mmHg 38%
    12:00 +24°C° 0 mm 2 mps 738 mmHg 35%
    13:00 +25°C° 0 mm 2 mps 738 mmHg 32%
    14:00 +26°C° 0 mm 3 mps 738 mmHg 29%
    15:00 +25°C° 0 mm 2 mps 738 mmHg 31%
    16:00 +23°C° 0 mm 2 mps 737 mmHg 33%
    17:00 +21°C° 0 mm 2 mps 737 mmHg 34%
    18:00 +20°C° 0 mm 2 mps 737 mmHg 36%
    19:00 +19°C° 0 mm 1 mps 737 mmHg 37%
    20:00 +18°C° 0 mm 1 mps 738 mmHg 39%
    21:00 +16°C° 0 mm 1 mps 738 mmHg 39%
    22:00 +16°C° 0 mm 1 mps 738 mmHg 40%
    23:00 +15°C° 0 mm 1 mps 738 mmHg 41%

    24 October, Thursday

    Time Temperature Precipitation Wind Pressure Humidity
    00:00 +15°C° 0 mm 1 mps 738 mmHg 42%
    01:00 +14°C° 0 mm 1 mps 738 mmHg 43%
    02:00 +13°C° 0 mm 0 mps 738 mmHg 44%
    03:00 +13°C° 0 mm 0 mps 738 mmHg 45%
    04:00 +12°C° 0 mm 0 mps 737 mmHg 47%
    05:00 +12°C° 0 mm 0 mps 737 mmHg 49%
    06:00 +12°C° 0 mm 0 mps 737 mmHg 48%
    07:00 +12°C° 0 mm 0 mps 737 mmHg 47%
    08:00 +13°C° 0 mm 0 mps 737 mmHg 46%
    09:00 +16°C° 0 mm 1 mps 737 mmHg 40%
    10:00 +19°C° 0 mm 1 mps 737 mmHg 34%
    11:00 +22°C° 0 mm 1 mps 737 mmHg 28%
    12:00 +23°C° 0 mm 2 mps 737 mmHg 26%
    13:00 +24°C° 0 mm 2 mps 737 mmHg 23%
    14:00 +25°C° 0 mm 2 mps 737 mmHg 21%
    15:00 +23°C° 0 mm 2 mps 736 mmHg 24%
    16:00 +22°C° 0 mm 1 mps 736 mmHg 26%
    17:00 +21°C° 0 mm 1 mps 736 mmHg 29%
    18:00 +19°C° 0 mm 1 mps 736 mmHg 31%
    19:00 +18°C° 0 mm 1 mps 736 mmHg 33%
    20:00 +16°C° 0 mm 1 mps 736 mmHg 34%
    21:00 +15°C° 0 mm 1 mps 736 mmHg 35%
    22:00 +15°C° 0 mm 1 mps 736 mmHg 35%
    23:00 +14°C° 0 mm 1 mps 737 mmHg 35%
    Show more